Location: Chateh
(58.6667°N, 118.6000°W)
Time: 07:50:03
(UTC+00:00)

XW-2C - Visible Passes

Search period start: 02 December 2023 00:00
Search period end: 12 December 2023 00:00
Orbit: 464 x 475 km, 97.5° (Epoch: 01 December)

Date Brightness Start Highest point End Pass type
(mag) Time Alt. Az. Time Alt. Az. Time Alt. Az.
02 Dec ? 00:59:15 10° SSE 01:02:44 62° ENE 01:06:16 10° N visible
02 Dec ? 02:33:46 10° SW 02:36:15 18° W 02:38:45 10° NW visible
02 Dec ? 13:48:32 10° NE 13:51:21 21° E 13:54:08 10° SE visible
02 Dec ? 15:21:16 10° N 15:24:45 51° WNW 15:28:12 10° SW visible
03 Dec ? 00:30:40 10° SE 00:33:53 34° ENE 00:37:08 10° N visible
03 Dec ? 02:03:51 10° SSW 02:07:03 31° W 02:10:17 10° NNW visible
03 Dec ? 13:20:33 10° ENE 13:22:03 12° E 13:23:33 10° ESE visible
03 Dec ? 14:52:13 10° NNE 14:55:47 84° ESE 14:59:20 10° SSW visible
04 Dec ? 00:02:24 10° ESE 00:05:04 21° ENE 00:07:46 10° N visible
04 Dec ? 01:34:25 10° S 01:37:54 60° WSW 01:41:27 10° NNW visible
04 Dec ? 14:23:15 10° NNE 14:26:41 43° E 14:30:05 10° S visible
05 Dec ? 01:05:19 10° SSE 01:08:49 71° ENE 01:12:23 10° NNW visible
05 Dec ? 02:40:07 10° SW 02:42:23 16° W 02:44:41 10° NW visible
05 Dec ? 13:54:27 10° NE 13:57:24 24° E 14:00:20 10° SSE visible
05 Dec ? 15:27:18 10° N 15:30:44 45° WNW 15:34:07 10° SW visible
06 Dec ? 00:36:30 10° SE 00:39:47 38° ENE 00:43:07 10° N visible
06 Dec ? 02:09:55 10° SSW 02:13:01 28° W 02:16:09 10° NNW visible
06 Dec ? 13:26:07 10° NE 13:27:58 14° E 13:29:49 10° ESE visible
06 Dec ? 14:58:03 10° NNE 15:01:38 86° WNW 15:05:11 10° SSW visible
07 Dec ? 00:08:00 10° ESE 00:10:49 22° ENE 00:13:38 10° N visible
07 Dec ? 01:40:14 10° S 01:43:42 53° WSW 01:47:12 10° NNW visible
07 Dec ? 14:28:55 10° NNE 14:32:23 49° E 14:35:50 10° S visible
08 Dec ? 01:10:55 10° SSE 01:14:26 80° ENE 01:18:00 10° NNW visible
08 Dec ? 02:46:02 10° WSW 02:48:03 14° W 02:50:05 10° NW visible
08 Dec ? 13:59:56 10° NE 14:02:58 26° E 14:06:01 10° SSE visible
08 Dec ? 15:32:52 10° N 15:36:14 40° WNW 15:39:34 10° SW visible
09 Dec ? 00:41:53 10° SE 00:45:14 42° ENE 00:48:37 10° N visible
09 Dec ? 02:15:31 10° SSW 02:18:30 25° W 02:21:32 10° NW visible
09 Dec ? 13:31:18 10° NE 13:33:24 15° E 13:35:31 10° SE visible
09 Dec ? 15:03:26 10° NNE 15:07:00 77° WNW 15:10:31 10° SSW visible
10 Dec ? 00:13:10 10° ESE 00:16:05 24° ENE 00:19:00 10° N visible
10 Dec ? 01:45:36 10° S 01:49:01 47° W 01:52:28 10° NNW visible
10 Dec ? 14:34:07 10° NNE 14:37:37 55° ESE 14:41:05 10° S visible
11 Dec ? 01:16:03 10° SSE 01:19:35 88° ENE 01:23:09 10° NNW visible
11 Dec ? 02:51:30 10° WSW 02:53:15 13° W 02:55:00 10° WNW visible
11 Dec ? 14:04:56 10° NNE 14:08:04 29° E 14:11:11 10° SSE visible
11 Dec ? 15:37:57 10° N 15:41:15 37° WNW 15:44:32 10° SW visible
